This is the latest recevied weather packets stored in our database for station/object IQ5VK-13. If no packets are shown the sender has not sent any weather packets the latest 10 day(s).
| Time | Temp. | Humidity | Pressure | Rain* | Wind** | Luminosity | Snow |
|---|---|---|---|---|---|---|---|
| 1788311560 | 18.89° C | 63% | 1022.4 hPa | - | - | - | - |
| 1788310359 | 18.89° C | 67% | 1022.6 hPa | - | - | - | - |
| 1788306166 | 19.44° C | 73% | 1022.8 hPa | - | - | - | - |
| 1788304966 | 19.44° C | 77% | 1022.8 hPa | - | - | - | - |
| 1788303766 | 19.44° C | 77% | 1022.8 hPa | - | - | - | - |
| 1788302565 | 19.44° C | 79% | 1022.8 hPa | - | - | - | - |
| 1788301365 | 18.89° C | 79% | 1023 hPa | - | - | - | - |
| 1788300172 | 18.89° C | 89% | 1023 hPa | - | - | - | - |
| 1788298965 | 18.89° C | 89% | 1023.2 hPa | - | - | - | - |
| 1788297764 | 19.44° C | 90% | 1023.1 hPa | - | - | - | - |
| 1788296564 | 20° C | 90% | 1023.1 hPa | - | - | - | - |
| 1788295364 | 20° C | 90% | 1023.3 hPa | - | - | - | - |
| 1788294163 | 19.44° C | 87% | 1023.3 hPa | - | - | - | - |
| 1788292963 | 20° C | 82% | 1023.2 hPa | - | - | - | - |
| 1788291763 | 20° C | 78% | 1023.2 hPa | - | - | - | - |
| 1788290563 | 20.56° C | 74% | 1023 hPa | - | - | - | - |
| 1788289362 | 20.56° C | 72% | 1022.8 hPa | - | - | - | - |
| 1788286962 | 21.11° C | 67% | 1022.4 hPa | - | - | - | - |
| 1788284576 | 22.78° C | 67% | 1022.1 hPa | - | - | - | - |
| 1788283369 | 23.89° C | 62% | 1022 hPa | - | - | - | - |
| 1788282169 | 25° C | 58% | 1022.2 hPa | - | - | - | - |
| 1788280968 | 26.11° C | 57% | 1022.3 hPa | - | - | - | - |
| 1788279768 | 26.67° C | 57% | 1022.5 hPa | - | - | - | - |
| 1788278569 | 26.67° C | 53% | 1022.4 hPa | - | - | - | - |
| 1788277368 | 27.22° C | 49% | 1022.4 hPa | - | - | - | - |
* Rain since midnight (hover to see other rain measurements)
** Current wind speed in m/s (hover to see current wind gust speed)